User: anonymous   Login
Location: Mentone
(34.5413°N, 85.5351°W)
Time: 08:24:05
(UTC-06:00)
Language:

Transit 2A Rocket - Orbit

View from above orbital plane
View from above orbital plane
View from above satellite
View from above satellite

Ground track
Ground track

The orbit data is extracted from the following two-line orbital elements,

1 00047U 60007C   14354.86392117  .00001011  00000-0  24946-3 0  3869
2 00047 066.6670 116.0545 0233945 328.6714 030.0622 14.41398184845983
Epoch (UTC): 20 December 2014 20:44:02
Eccentricity: 0.0233945
inclination: 66.6670°
perigee height: 587 km
apogee height: 921 km
right ascension of ascending node: 116.0545°
argument of perigee: 328.6714°
revolutions per day: 14.41398184
mean anomaly at epoch: 30.0622°
orbit number at epoch: 84598

The dashed part of the orbit path shows where the satellite is in the earth's shadow,  

DLR